This demonstration page uses our WeatherBlox Daily Observations layout. Learn more.

Left ArrowRight Arrow

Hourly Observations for May 14, 2015

Temp ( °F °C ) Dew Point ( °F °C ) Humidity (%) Winds ( mph kmh ) Pressure ( in mb ) Visibility ( mi km ) Precip ( " mm )
12:05 am 00:05 Cloudy with Rain 54 12.2 52 11.1 93 93 SE 12 19 30.00 1016 4 6 0.04 1.02
12:53 am 00:53 Cloudy with Rain 54 12.2 52 11.1 93 93 SE 10 17 29.97 1015 4 6 0.14 3.56
1:53 am 01:53 Cloudy with Light Rain 54 12.2 52 11.1 93 93 ESE 12 19 29.94 1014 6 10 0.06 1.52
2:53 am 02:53 Cloudy with Light Rain 54 12.2 53 11.7 97 97 SE 10 17 29.91 1013 4 6 0.05 1.27
3:53 am 03:53 Cloudy with Light Rain 54 12.2 53 11.7 97 97 SE 9 15 29.90 1013 6 10 0.01 0.25
4:53 am 04:53 Cloudy with Light Rain 54 12.2 53 11.7 97 97 SSE 7 11 29.90 1012 4 6 0.00 0.03
5:53 am 05:53 Cloudy with Mist and Fog 54 12.2 54 12.2 100 100 S 6 9 29.88 1012 6 10 0.00 0.03
6:42 am 06:42 Cloudy with Mist and Fog 54 12 54 12 100 100 S 5 7 29.91 1013 2 3 0.00 0.00
6:53 am 06:53 Cloudy with Mist and Fog 54 12.2 54 12.2 100 100 S 5 7 29.89 1012 2 3 0.00 0.00
7:06 am 07:06 Cloudy with Mist and Fog 54 12.2 54 12.2 100 100 SSW 6 9 29.91 1013 2 3 0.00 0.00
7:21 am 07:21 Cloudy with Mist and Fog 55 12.8 54 12.2 96 96 SSW 7 11 29.91 1013 5 8 0.00 0.00
7:53 am 07:53 Cloudy 55 12.8 54 12.2 96 96 SSW 7 11 29.91 1013 10 16 0.00 0.00
8:01 am 08:01 Cloudy 55 12.8 54 12.2 96 96 SW 6 9 29.91 1013 10 16 0.00 0.00
8:53 am 08:53 Cloudy 56 13.3 54 12.2 93 93 WSW 7 11 29.91 1013 10 16 0.00 0.00
9:21 am 09:21 Cloudy 57 13.9 54 12.2 90 90 WSW 8 13 29.88 1012 10 16 0.00 0.00
9:53 am 09:53 Cloudy 59 15 53 11.7 81 81 W 8 13 29.91 1013 10 16 0.00 0.00
10:25 am 10:25 Cloudy 59 15 54 12.2 83 83 W 9 15 29.88 1012 10 16 0.00 0.00
10:53 am 10:53 Cloudy 59 15 53 11.7 81 81 W 7 11 29.91 1013 10 16 0.00 0.00
11:09 am 11:09 Cloudy 60 15.6 53 11.7 78 78 WNW 6 9 29.88 1012 10 16 0.00 0.00
11:53 am 11:53 Cloudy 60 15.6 54 12.2 80 80 W 7 11 29.92 1013 10 16 0.00 0.00
12:53 pm 12:53 Cloudy 61 16.1 53 11.7 75 75 SW 6 9 29.91 1013 10 16 0.00 0.00
1:53 pm 13:53 Cloudy 63 17.2 55 12.8 76 76 VRB 5 7 29.90 1013 10 16 0.00 0.00
2:53 pm 14:53 Cloudy 65 18.3 56 13.3 73 73 WSW 9 15 29.89 1012 10 16 0.00 0.00
3:53 pm 15:53 Cloudy 68 20 58 14.4 70 70 SW 8 13 29.88 1012 10 16 0.00 0.00
4:05 pm 16:05 Mostly Cloudy 68 20 57 13.9 68 68 WSW 8 13 29.85 1011 10 16 0.00 0.00
4:13 pm 16:13 Mostly Cloudy 70 21 57 14 64 64 WSW 12 19 29.85 1011 10 16 0.00 0.00
4:53 pm 16:53 Partly Cloudy 70 21.1 57 13.9 64 64 WSW 7 11 29.86 1011 10 16 0.00 0.00
5:53 pm 17:53 Sunny 71 21.7 57 13.9 61 61 SW 5 7 29.87 1011 10 16 0.00 0.00
6:53 pm 18:53 Sunny 71 21.7 57 13.9 61 61 S 8 13 29.85 1011 10 16 0.00 0.00
7:53 pm 19:53 Sunny 70 21.1 58 14.4 66 66 S 5 7 29.85 1011 10 16 0.00 0.00
8:53 pm 20:53 Clear 67 19.4 59 15 76 76 SSE 7 11 29.86 1011 10 16 0.00 0.00
9:53 pm 21:53 Clear 63 17.2 59 15 87 87 SE 7 11 29.87 1012 10 16 0.00 0.00
10:53 pm 22:53 Clear 63 17.2 58 14.4 84 84 SSE 7 11 29.88 1012 10 16 0.00 0.00
11:53 pm 23:53 Clear 61 16.1 57 13.9 87 87 SSE 7 11 29.89 1012 10 16 0.00 0.00

Powered by AerisWeather